Location: Tucson
(32.2217°N, 110.9265°W)
Time: 03:54:40
(UTC-07:00)

Oscar 11 - Pass Details

Date: 01 December 2021
Orbit: 611 x 625 km, 97.6° (Epoch: 19 January)

Event Time Altitude Azimuth Distance (km) Brightness Sun altitude
Rises 17:39:36 0° 188° (S) 2,882 11.0 -4.9°
Reaches altitude 10° 17:41:57 10° 198° (SSW) 1,982 10.3 -5.4°
Maximum altitude 17:45:50 32° 262° (W) 1,062 9.2 -6.1°
Drops below altitude 10° 17:49:45 10° 327° (NNW) 1,999 9.8 -6.9°
Sets 17:52:08 0° 337° (NNW) 2,911 10.5 -7.4°
